This is the latest recevied weather packets stored in our database for station/object K5NAN. If no packets are shown the sender has not sent any weather packets the latest 10 day(s).
| Time | Temp. | Humidity | Pressure | Rain* | Wind** | Luminosity | Snow |
|---|---|---|---|---|---|---|---|
| 1777860034 | 20° C | 52% | 1014.5 hPa | 0 mm | - | 0 W/m² | - |
| 1777859730 | 20° C | 51% | 1014.6 hPa | 0 mm | - | 0 W/m² | - |
| 1777859426 | 20° C | 51% | 1014.6 hPa | 0 mm | - | 0 W/m² | - |
| 1777859122 | 20° C | 51% | 1014.6 hPa | 0 mm | - | 0 W/m² | - |
| 1777858820 | 20.56° C | 51% | 1014.5 hPa | 0 mm | - | 0 W/m² | - |
| 1777858518 | 20.56° C | 50% | 1014.4 hPa | 0 mm | - | 0 W/m² | - |
| 1777858215 | 20.56° C | 50% | 1014.4 hPa | 0 mm | - | 0 W/m² | - |
| 1777857912 | 21.11° C | 49% | 1014.5 hPa | 0 mm | - | 0 W/m² | - |
| 1777857610 | 21.11° C | 48% | 1014.4 hPa | 0 mm | - | 1 W/m² | - |
| 1777857306 | 21.67° C | 48% | 1014.3 hPa | 0 mm | - | 1 W/m² | - |
| 1777857001 | 21.67° C | 47% | 1014.3 hPa | 0 mm | - | 3 W/m² | - |
| 1777856698 | 21.67° C | 47% | 1014.4 hPa | 0 mm | - | 4 W/m² | - |
| 1777856394 | 21.67° C | 46% | 1014.4 hPa | 0 mm | - | 6 W/m² | - |
| 1777856091 | 22.22° C | 46% | 1014.4 hPa | 0 mm | - | 8 W/m² | - |
| 1777855788 | 22.78° C | 45% | 1014.2 hPa | 0 mm | - | 12 W/m² | - |
| 1777855486 | 22.78° C | 44% | 1014.1 hPa | 0 mm | - | 17 W/m² | - |
| 1777855183 | 23.33° C | 43% | 1014.1 hPa | 0 mm | - | 22 W/m² | - |
| 1777854879 | 23.89° C | 42% | 1014.2 hPa | 0 mm | - | 28 W/m² | - |
| 1777854576 | 23.89° C | 41% | 1014.2 hPa | 0 mm | - | 34 W/m² | - |
| 1777854273 | 23.89° C | 40% | 1014.3 hPa | 0 mm | - | 40 W/m² | - |
| 1777853970 | 24.44° C | 40% | 1014.3 hPa | 0 mm | - | 43 W/m² | - |
| 1777853667 | 24.44° C | 39% | 1014.3 hPa | 0 mm | - | 42 W/m² | - |
| 1777853364 | 24.44° C | 39% | 1014.5 hPa | 0 mm | - | 41 W/m² | - |
| 1777853061 | 25° C | 39% | 1014.3 hPa | 0 mm | - | 50 W/m² | - |
| 1777852758 | 25° C | 39% | 1014.4 hPa | 0 mm | - | 52 W/m² | - |
* Rain latest hour (hover to see other rain measurements)
** Current wind speed in m/s (hover to see current wind gust speed)